Location: *
(52.2090°N, 4.1550°W)
Time: 23:36:06
(UTC+00:00)

Gbstr 26 Del rocket - Pass Details

Date: 19 July 2019
Orbit: 493 x 1264 km, 51.8° (Epoch: 18 August)

Event Time Altitude Azimuth Distance (km) Brightness Sun altitude
Rises 21:35:43 0° 250° (WSW) 2,749 6.7 -8.4°
Reaches altitude 10° 21:38:03 10° 248° (WSW) 1,785 5.6 -8.7°
Maximum altitude 21:41:57 68° 166° (SSE) 544 2.6 -9.0°
Drops below altitude 10° 21:45:40 10° 83° (E) 1,692 5.0 -9.4°
Sets 21:47:50 0° 80° (E) 2,590 6.0 -9.6°
